TimeEDT,TemperatureF,Dew PointF,Humidity,Sea Level PressureIn,VisibilityMPH,Wind Direction,Wind SpeedMPH,Gust SpeedMPH,PrecipitationIn,Events,Conditions,WindDirDegrees,DateUTC
12:53 AM,72.0,69.1,91,30.08,10.0,Calm,Calm,-,0.00,,Partly Cloudy,0,2013-07-06 04:53:00
1:53 AM,72.0,69.1,91,30.08,10.0,SE,3.5,-,N/A,,Clear,140,2013-07-06 05:53:00
2:17 AM,71.6,69.8,94,30.09,10.0,Variable,3.5,-,N/A,,Mostly Cloudy,0,2013-07-06 06:17:00
2:53 AM,72.0,69.1,91,30.07,10.0,SE,4.6,-,N/A,,Overcast,140,2013-07-06 06:53:00
3:32 AM,71.6,69.8,94,30.09,10.0,South,4.6,-,0.00,Rain,Light Rain,180,2013-07-06 07:32:00
3:51 AM,71.6,69.8,94,30.08,10.0,South,3.5,-,0.00,,Mostly Cloudy,170,2013-07-06 07:51:00
3:53 AM,71.1,69.1,93,30.06,10.0,South,4.6,-,0.00,,Mostly Cloudy,170,2013-07-06 07:53:00
4:15 AM,71.6,69.8,94,30.08,10.0,SSE,5.8,-,N/A,,Scattered Clouds,160,2013-07-06 08:15:00
4:53 AM,70.0,68.0,93,30.06,10.0,SSE,3.5,-,0.00,Rain,Light Rain,160,2013-07-06 08:53:00
5:37 AM,69.8,69.8,100,30.09,10.0,SSE,6.9,-,0.00,Rain,Light Rain,160,2013-07-06 09:37:00
5:53 AM,69.1,68.0,96,30.06,10.0,SSE,5.8,-,0.00,,Mostly Cloudy,160,2013-07-06 09:53:00
6:23 AM,69.8,66.2,88,30.09,10.0,South,6.9,-,0.00,Rain,Light Rain,180,2013-07-06 10:23:00
6:53 AM,68.0,66.9,96,30.08,10.0,Calm,Calm,-,0.01,Rain,Light Rain,0,2013-07-06 10:53:00
7:53 AM,68.0,66.9,96,30.08,10.0,Calm,Calm,-,0.00,,Mostly Cloudy,0,2013-07-06 11:53:00
8:00 AM,68.0,66.2,94,30.10,10.0,Calm,Calm,-,N/A,,Mostly Cloudy,0,2013-07-06 12:00:00
8:07 AM,68.0,66.2,94,30.11,10.0,Calm,Calm,-,N/A,,Overcast,0,2013-07-06 12:07:00
8:41 AM,68.0,66.2,94,30.11,10.0,Calm,Calm,-,0.00,,Overcast,0,2013-07-06 12:41:00
8:53 AM,68.0,66.9,96,30.09,10.0,Calm,Calm,-,0.00,,Overcast,0,2013-07-06 12:53:00
9:06 AM,68.0,66.2,94,30.11,10.0,Calm,Calm,-,N/A,,Overcast,0,2013-07-06 13:06:00
9:25 AM,69.8,66.2,88,30.11,10.0,Calm,Calm,-,N/A,,Overcast,0,2013-07-06 13:25:00
9:42 AM,69.8,66.2,88,30.11,10.0,Calm,Calm,-,N/A,,Overcast,0,2013-07-06 13:42:00
9:53 AM,69.1,66.0,90,30.09,10.0,Calm,Calm,-,N/A,,Mostly Cloudy,0,2013-07-06 13:53:00
10:06 AM,69.8,66.2,88,30.11,10.0,NE,3.5,-,N/A,,Mostly Cloudy,50,2013-07-06 14:06:00
10:53 AM,70.0,66.0,87,30.08,10.0,Calm,Calm,-,N/A,,Mostly Cloudy,0,2013-07-06 14:53:00
11:53 AM,68.0,66.0,93,30.10,7.0,SSW,4.6,-,0.00,Rain,Light Rain,200,2013-07-06 15:53:00
12:53 PM,70.0,66.0,87,30.09,10.0,Calm,Calm,-,0.01,,Overcast,0,2013-07-06 16:53:00
1:53 PM,72.0,64.0,76,30.08,10.0,SW,3.5,-,N/A,,Mostly Cloudy,220,2013-07-06 17:53:00
2:53 PM,73.9,64.0,71,30.07,10.0,SW,4.6,-,N/A,,Mostly Cloudy,220,2013-07-06 18:53:00
3:48 PM,73.4,64.4,73,30.09,10.0,South,3.5,-,N/A,,Overcast,180,2013-07-06 19:48:00
3:53 PM,73.0,64.9,76,30.07,10.0,SSE,3.5,-,N/A,,Overcast,160,2013-07-06 19:53:00
4:08 PM,73.4,64.4,73,30.08,10.0,SE,3.5,-,N/A,,Overcast,140,2013-07-06 20:08:00
4:37 PM,73.4,66.2,78,30.08,10.0,SE,4.6,-,N/A,,Overcast,140,2013-07-06 20:37:00
4:53 PM,73.0,66.0,79,30.06,10.0,SE,4.6,-,N/A,,Overcast,130,2013-07-06 20:53:00
5:53 PM,75.0,66.9,76,30.05,10.0,SE,4.6,-,N/A,,Mostly Cloudy,140,2013-07-06 21:53:00
6:53 PM,75.0,66.9,76,30.03,10.0,SSE,6.9,-,N/A,,Mostly Cloudy,160,2013-07-06 22:53:00
7:53 PM,75.9,66.0,71,30.04,10.0,SSW,8.1,-,N/A,,Mostly Cloudy,200,2013-07-06 23:53:00
8:53 PM,72.0,66.0,81,30.03,10.0,SE,4.6,-,N/A,,Clear,140,2013-07-07 00:53:00
9:53 PM,69.1,66.0,90,30.06,10.0,SSE,5.8,-,N/A,,Clear,160,2013-07-07 01:53:00
10:53 PM,68.0,66.0,93,30.08,10.0,South,4.6,-,N/A,,Clear,170,2013-07-07 02:53:00
11:53 PM,66.0,64.0,93,30.08,10.0,SSE,3.5,-,N/A,,Clear,160,2013-07-07 03:53:00